Time,TemperatureF,DewpointF,PressureIn,WindDirection,WindDirectionDegrees,WindSpeedMPH,WindSpeedGustMPH,Humidity,HourlyPrecipIn,Conditions,Clouds,dailyrainin,SolarRadiationWatts/m^2,SoftwareType,DateUTC
2013-08-25 00:13:00,83.2,76.0,30.07,ENE,73,0.0,-999.0,78,-99.99,,,0.00,0,weatherlink.com 1.10,2013-08-25 04:13:00,
2013-08-25 00:28:00,83.1,76.0,30.06,ESE,111,2.0,-999.0,78,-99.99,,,0.00,0,weatherlink.com 1.10,2013-08-25 04:28:00,
2013-08-25 00:43:00,83.1,76.0,30.05,East,88,0.0,-999.0,78,-99.99,,,0.00,0,weatherlink.com 1.10,2013-08-25 04:43:00,
2013-08-25 00:58:00,83.2,76.0,30.05,ESE,109,0.0,-999.0,79,-99.99,,,0.00,0,weatherlink.com 1.10,2013-08-25 04:58:00,
2013-08-25 01:13:00,83.0,76.0,30.04,ESE,109,0.0,-999.0,80,-99.99,,,0.00,0,weatherlink.com 1.10,2013-08-25 05:13:00,
2013-08-25 01:28:00,83.0,76.0,30.04,SE,128,0.0,-999.0,80,-99.99,,,0.00,0,weatherlink.com 1.10,2013-08-25 05:28:00,
2013-08-25 01:43:00,83.0,77.0,30.04,ESE,118,0.0,-999.0,81,-99.99,,,0.00,0,weatherlink.com 1.10,2013-08-25 05:43:00,
2013-08-25 01:58:00,82.9,77.0,30.03,ESE,107,0.0,-999.0,82,-99.99,,,0.00,0,weatherlink.com 1.10,2013-08-25 05:58:00,
2013-08-25 02:13:00,82.9,77.0,30.02,ESE,112,0.0,-999.0,82,-99.99,,,0.00,0,weatherlink.com 1.10,2013-08-25 06:13:00,
2013-08-25 02:28:00,82.8,76.0,30.02,ENE,70,0.0,-999.0,81,-99.99,,,0.00,0,weatherlink.com 1.10,2013-08-25 06:28:00,
2013-08-25 02:43:00,82.6,76.0,30.02,ENE,77,0.0,-999.0,81,-99.99,,,0.00,0,weatherlink.com 1.10,2013-08-25 06:43:00,
2013-08-25 02:59:00,82.6,77.0,30.02,East,85,4.0,-999.0,82,-99.99,,,0.00,0,weatherlink.com 1.10,2013-08-25 06:59:00,
2013-08-25 03:14:00,82.4,76.0,30.02,East,85,0.0,-999.0,82,-99.99,,,0.00,0,weatherlink.com 1.10,2013-08-25 07:14:00,
2013-08-25 03:29:00,82.2,76.0,30.02,East,85,0.0,-999.0,82,-99.99,,,0.00,0,weatherlink.com 1.10,2013-08-25 07:29:00,
2013-08-25 03:44:00,82.0,76.0,30.02,East,85,0.0,-999.0,82,-99.99,,,0.00,0,weatherlink.com 1.10,2013-08-25 07:44:00,
2013-08-25 03:59:00,81.8,76.0,30.02,East,84,0.0,-999.0,82,-99.99,,,0.00,0,weatherlink.com 1.10,2013-08-25 07:59:00,
2013-08-25 04:14:00,81.9,77.0,30.02,NE,39,0.0,-999.0,84,-99.99,,,0.00,0,weatherlink.com 1.10,2013-08-25 08:14:00,
2013-08-25 04:29:00,81.9,77.0,30.03,ENE,65,0.0,-999.0,84,-99.99,,,0.00,0,weatherlink.com 1.10,2013-08-25 08:29:00,
2013-08-25 04:44:00,81.7,77.0,30.03,ENE,65,0.0,-999.0,84,-99.99,,,0.00,0,weatherlink.com 1.10,2013-08-25 08:44:00,
2013-08-25 04:59:00,81.5,76.0,30.03,ENE,65,0.0,-999.0,84,-99.99,,,0.00,0,weatherlink.com 1.10,2013-08-25 08:59:00,
2013-08-25 05:14:00,81.4,76.0,30.04,ENE,65,0.0,-999.0,84,-99.99,,,0.00,0,weatherlink.com 1.10,2013-08-25 09:14:00,
2013-08-25 05:29:00,81.0,76.0,30.04,ENE,65,0.0,-999.0,84,-99.99,,,0.00,0,weatherlink.com 1.10,2013-08-25 09:29:00,
2013-08-25 05:44:00,80.7,76.0,30.05,ENE,65,0.0,-999.0,85,-99.99,,,0.00,0,weatherlink.com 1.10,2013-08-25 09:44:00,
2013-08-25 05:59:00,80.4,76.0,30.06,ENE,65,0.0,-999.0,86,-99.99,,,0.00,0,weatherlink.com 1.10,2013-08-25 09:59:00,
2013-08-25 06:14:00,80.2,76.0,30.06,ENE,65,0.0,-999.0,87,-99.99,,,0.00,0,weatherlink.com 1.10,2013-08-25 10:14:00,
2013-08-25 06:29:00,79.8,76.0,30.06,ENE,65,0.0,-999.0,88,-99.99,,,0.00,0,weatherlink.com 1.10,2013-08-25 10:29:00,
2013-08-25 06:44:00,79.4,76.0,30.07,ENE,65,0.0,-999.0,88,-99.99,,,0.00,0,weatherlink.com 1.10,2013-08-25 10:44:00,
2013-08-25 06:59:00,79.3,76.0,30.07,ENE,65,0.0,-999.0,89,-99.99,,,0.00,0,weatherlink.com 1.10,2013-08-25 10:59:00,
2013-08-25 07:14:00,79.1,76.0,30.07,ENE,65,0.0,-999.0,90,-99.99,,,0.00,11,weatherlink.com 1.10,2013-08-25 11:14:00,
2013-08-25 07:29:00,79.0,76.0,30.08,ENE,65,0.0,-999.0,91,-99.99,,,0.00,25,weatherlink.com 1.10,2013-08-25 11:29:00,
2013-08-25 07:44:00,79.0,76.0,30.08,ENE,63,0.0,-999.0,91,-99.99,,,0.00,47,weatherlink.com 1.10,2013-08-25 11:44:00,
2013-08-25 07:59:00,79.1,76.0,30.09,NE,44,0.0,-999.0,91,-99.99,,,0.00,74,weatherlink.com 1.10,2013-08-25 11:59:00,
2013-08-25 08:14:00,79.3,77.0,30.09,North,360,0.0,-999.0,91,-99.99,,,0.00,104,weatherlink.com 1.10,2013-08-25 12:14:00,
2013-08-25 08:29:00,79.6,77.0,30.08,North,360,0.0,-999.0,91,-99.99,,,0.00,128,weatherlink.com 1.10,2013-08-25 12:29:00,
2013-08-25 08:44:00,79.8,77.0,30.09,NW,320,1.0,-999.0,90,-99.99,,,0.00,151,weatherlink.com 1.10,2013-08-25 12:44:00,
2013-08-25 09:00:00,80.0,76.0,30.09,NNE,19,0.0,-999.0,88,-99.99,,,0.00,163,weatherlink.com 1.10,2013-08-25 13:00:00,
2013-08-25 09:14:00,80.3,76.0,30.10,NNE,32,1.0,-999.0,87,-99.99,,,0.00,178,weatherlink.com 1.10,2013-08-25 13:14:00,
2013-08-25 09:29:00,80.7,76.0,30.10,NNE,33,3.0,-999.0,86,-99.99,,,0.00,183,weatherlink.com 1.10,2013-08-25 13:29:00,
2013-08-25 09:44:00,81.1,76.0,30.12,NE,41,6.0,-999.0,83,-99.99,,,0.00,148,weatherlink.com 1.10,2013-08-25 13:44:00,
2013-08-25 09:59:00,80.8,75.0,30.12,NW,311,0.0,-999.0,83,-99.99,,,0.00,165,weatherlink.com 1.10,2013-08-25 13:59:00,
2013-08-25 10:14:00,81.1,75.0,30.13,North,349,0.0,-999.0,82,-99.99,,,0.00,285,weatherlink.com 1.10,2013-08-25 14:14:00,
2013-08-25 10:30:00,82.1,76.0,30.14,East,84,6.0,-999.0,81,-99.99,,,0.00,320,weatherlink.com 1.10,2013-08-25 14:30:00,
2013-08-25 10:45:00,82.0,76.0,30.13,NE,43,5.0,-999.0,81,-99.99,,,0.00,466,weatherlink.com 1.10,2013-08-25 14:45:00,
2013-08-25 11:00:00,81.9,74.0,30.13,NE,55,3.0,-999.0,78,-99.99,,,0.00,693,weatherlink.com 1.10,2013-08-25 15:00:00,
2013-08-25 11:15:00,82.7,74.0,30.14,ENE,71,4.0,-999.0,76,-99.99,,,0.00,441,weatherlink.com 1.10,2013-08-25 15:15:00,
2013-08-25 11:30:00,82.4,73.0,30.13,ENE,67,11.0,-999.0,72,-99.99,,,0.00,323,weatherlink.com 1.10,2013-08-25 15:30:00,
2013-08-25 11:45:00,82.1,74.0,30.13,NNE,13,4.0,-999.0,76,-99.99,,,0.00,374,weatherlink.com 1.10,2013-08-25 15:45:00,
2013-08-25 12:00:00,82.7,74.0,30.13,NE,50,4.0,-999.0,76,-99.99,,,0.00,515,weatherlink.com 1.10,2013-08-25 16:00:00,
2013-08-25 12:15:00,83.2,75.0,30.13,ENE,63,7.0,-999.0,76,-99.99,,,0.00,791,weatherlink.com 1.10,2013-08-25 16:15:00,
2013-08-25 12:30:00,84.4,75.0,30.13,East,84,5.0,-999.0,73,-99.99,,,0.00,640,weatherlink.com 1.10,2013-08-25 16:30:00,
2013-08-25 12:45:00,84.5,75.0,30.12,NE,50,4.0,-999.0,72,-99.99,,,0.00,752,weatherlink.com 1.10,2013-08-25 16:45:00,
2013-08-25 13:00:00,84.2,75.0,30.12,ENE,62,6.0,-999.0,74,-99.99,,,0.00,719,weatherlink.com 1.10,2013-08-25 17:00:00,
2013-08-25 13:15:00,83.7,75.0,30.11,ENE,76,2.0,-999.0,76,-99.99,,,0.00,380,weatherlink.com 1.10,2013-08-25 17:15:00,
2013-08-25 13:30:00,83.8,76.0,30.11,NNE,32,4.0,-999.0,76,-99.99,,,0.00,362,weatherlink.com 1.10,2013-08-25 17:30:00,
2013-08-25 13:45:00,83.8,76.0,30.10,East,99,5.0,-999.0,76,-99.99,,,0.00,411,weatherlink.com 1.10,2013-08-25 17:45:00,
2013-08-25 14:00:00,84.4,75.0,30.10,East,98,7.0,-999.0,73,-99.99,,,0.00,555,weatherlink.com 1.10,2013-08-25 18:00:00,
2013-08-25 14:15:00,84.5,75.0,30.09,ENE,66,2.0,-999.0,74,-99.99,,,0.00,339,weatherlink.com 1.10,2013-08-25 18:15:00,
2013-08-25 14:30:00,84.0,75.0,30.08,NE,43,5.0,-999.0,75,-99.99,,,0.00,272,weatherlink.com 1.10,2013-08-25 18:30:00,
2013-08-25 14:45:00,84.3,76.0,30.07,ENE,75,3.0,-999.0,75,-99.99,,,0.00,643,weatherlink.com 1.10,2013-08-25 18:45:00,
2013-08-25 15:00:00,85.8,76.0,30.06,East,94,0.0,-999.0,72,-99.99,,,0.00,605,weatherlink.com 1.10,2013-08-25 19:00:00,
2013-08-25 15:15:00,86.0,76.0,30.05,ESE,105,1.0,-999.0,71,-99.99,,,0.00,520,weatherlink.com 1.10,2013-08-25 19:15:00,
2013-08-25 15:30:00,85.9,76.0,30.05,ESE,119,5.0,-999.0,73,-99.99,,,0.00,318,weatherlink.com 1.10,2013-08-25 19:30:00,
2013-08-25 15:45:00,85.6,76.0,30.04,ENE,75,4.0,-999.0,74,-99.99,,,0.00,455,weatherlink.com 1.10,2013-08-25 19:45:00,
2013-08-25 16:00:00,86.5,76.0,30.04,East,95,5.0,-999.0,71,-99.99,,,0.00,896,weatherlink.com 1.10,2013-08-25 20:00:00,
2013-08-25 16:15:00,86.9,76.0,30.04,ESE,122,5.0,-999.0,70,-99.99,,,0.00,406,weatherlink.com 1.10,2013-08-25 20:15:00,
2013-08-25 16:30:00,85.7,76.0,30.04,East,86,7.0,-999.0,73,-99.99,,,0.00,237,weatherlink.com 1.10,2013-08-25 20:30:00,
2013-08-25 16:45:00,84.6,77.0,30.04,East,89,0.0,-999.0,77,-99.99,,,0.00,369,weatherlink.com 1.10,2013-08-25 20:45:00,
2013-08-25 17:00:00,84.7,77.0,30.04,ESE,116,6.0,-999.0,77,-99.99,,,0.00,294,weatherlink.com 1.10,2013-08-25 21:00:00,
2013-08-25 17:15:00,85.5,77.0,30.05,ENE,65,3.0,-999.0,76,-99.99,,,0.00,306,weatherlink.com 1.10,2013-08-25 21:15:00,
2013-08-25 17:30:00,84.8,76.0,30.05,NE,54,7.0,-999.0,75,-99.99,,,0.00,225,weatherlink.com 1.10,2013-08-25 21:30:00,
2013-08-25 17:45:00,84.5,76.0,30.05,East,80,4.0,-999.0,76,-99.99,,,0.00,141,weatherlink.com 1.10,2013-08-25 21:45:00,
2013-08-25 18:00:00,84.1,76.0,30.05,ENE,77,0.0,-999.0,76,-99.99,,,0.00,128,weatherlink.com 1.10,2013-08-25 22:00:00,
2013-08-25 18:15:00,83.9,76.0,30.05,NE,51,5.0,-999.0,76,-99.99,,,0.00,116,weatherlink.com 1.10,2013-08-25 22:15:00,
2013-08-25 18:30:00,83.6,76.0,30.05,East,80,0.0,-999.0,77,-99.99,,,0.00,86,weatherlink.com 1.10,2013-08-25 22:30:00,
2013-08-25 18:45:00,83.3,76.0,30.05,ENE,76,0.0,-999.0,78,-99.99,,,0.00,62,weatherlink.com 1.10,2013-08-25 22:45:00,
2013-08-25 19:00:00,82.9,75.0,30.05,East,100,0.0,-999.0,78,-99.99,,,0.00,37,weatherlink.com 1.10,2013-08-25 23:00:00,
2013-08-25 19:15:00,82.9,75.0,30.05,East,89,2.0,-999.0,78,-99.99,,,0.00,23,weatherlink.com 1.10,2013-08-25 23:15:00,
2013-08-25 19:30:00,82.6,76.0,30.05,ENE,61,0.0,-999.0,79,-99.99,,,0.00,9,weatherlink.com 1.10,2013-08-25 23:30:00,
2013-08-25 19:45:00,82.5,75.0,30.06,East,84,0.0,-999.0,79,-99.99,,,0.00,0,weatherlink.com 1.10,2013-08-25 23:45:00,
2013-08-25 20:00:00,82.4,76.0,30.06,East,84,2.0,-999.0,80,-99.99,,,0.00,0,weatherlink.com 1.10,2013-08-26 00:00:00,
2013-08-25 20:15:00,82.5,76.0,30.07,NE,53,0.0,-999.0,80,-99.99,,,0.00,0,weatherlink.com 1.10,2013-08-26 00:15:00,
2013-08-25 20:30:00,82.5,76.0,30.08,East,88,0.0,-999.0,80,-99.99,,,0.00,0,weatherlink.com 1.10,2013-08-26 00:30:00,
2013-08-25 20:45:00,82.5,75.0,30.08,NE,53,1.0,-999.0,79,-99.99,,,0.00,0,weatherlink.com 1.10,2013-08-26 00:45:00,
2013-08-25 21:00:00,82.6,75.0,30.08,NE,55,0.0,-999.0,78,-99.99,,,0.00,0,weatherlink.com 1.10,2013-08-26 01:00:00,
2013-08-25 21:15:00,82.8,75.0,30.09,ENE,61,0.0,-999.0,77,-99.99,,,0.00,0,weatherlink.com 1.10,2013-08-26 01:15:00,
2013-08-25 21:30:00,82.9,75.0,30.09,NE,53,3.0,-999.0,78,-99.99,,,0.00,0,weatherlink.com 1.10,2013-08-26 01:30:00,
2013-08-25 21:45:00,82.9,75.0,30.09,East,98,1.0,-999.0,76,-99.99,,,0.00,0,weatherlink.com 1.10,2013-08-26 01:45:00,
2013-08-25 22:00:00,82.9,75.0,30.10,ENE,68,3.0,-999.0,77,-99.99,,,0.00,0,weatherlink.com 1.10,2013-08-26 02:00:00,
2013-08-25 22:15:00,82.8,75.0,30.10,NE,50,4.0,-999.0,78,-99.99,,,0.00,0,weatherlink.com 1.10,2013-08-26 02:15:00,
2013-08-25 22:30:00,82.7,75.0,30.11,NE,46,1.0,-999.0,77,-99.99,,,0.00,0,weatherlink.com 1.10,2013-08-26 02:30:00,
2013-08-25 22:45:00,82.7,75.0,30.10,ENE,59,5.0,-999.0,77,-99.99,,,0.00,0,weatherlink.com 1.10,2013-08-26 02:45:00,
2013-08-25 23:00:00,82.7,75.0,30.10,ENE,58,1.0,-999.0,78,-99.99,,,0.00,0,weatherlink.com 1.10,2013-08-26 03:00:00,
2013-08-25 23:15:00,82.6,75.0,30.10,ENE,77,0.0,-999.0,78,-99.99,,,0.00,0,weatherlink.com 1.10,2013-08-26 03:15:00,
2013-08-25 23:30:00,82.5,75.0,30.11,ENE,57,2.0,-999.0,78,-99.99,,,0.00,0,weatherlink.com 1.10,2013-08-26 03:30:00,
2013-08-25 23:45:00,82.5,75.0,30.11,East,84,7.0,-999.0,78,-99.99,,,0.00,0,weatherlink.com 1.10,2013-08-26 03:45:00,